Time,TemperatureF,DewpointF,PressureIn,WindDirection,WindDirectionDegrees,WindSpeedMPH,WindSpeedGustMPH,Humidity,HourlyPrecipIn,Conditions,Clouds,dailyrainin,SoftwareType,DateUTC
2013-08-09 00:01:00,73.0,69.0,30.06,SSE,158,0.0,0.0,87,0.00,,,0.00,,2013-08-09 04:01:00,
2013-08-09 00:12:00,73.0,69.0,30.06,SSW,202,0.0,0.0,87,0.00,,,0.00,,2013-08-09 04:12:00,
2013-08-09 00:22:00,73.0,69.0,30.06,SW,225,0.0,3.0,87,0.00,,,5.19,,2013-08-09 04:22:00,
2013-08-09 00:33:00,73.0,69.0,30.06,SE,135,0.0,0.0,87,0.00,,,0.00,,2013-08-09 04:33:00,
2013-08-09 00:43:00,73.0,69.0,30.06,SSE,158,0.0,0.0,87,0.00,,,0.00,,2013-08-09 04:43:00,
2013-08-09 00:53:00,73.0,69.0,30.06,SSE,158,0.0,2.0,87,0.00,,,0.00,,2013-08-09 04:53:00,
2013-08-09 01:02:00,73.0,69.0,30.06,SSE,158,2.0,2.0,87,0.00,,,0.00,,2013-08-09 05:02:00,
2013-08-09 01:11:00,73.0,69.0,30.06,South,180,0.0,3.0,87,0.00,,,0.00,,2013-08-09 05:11:00,
2013-08-09 01:22:00,73.0,69.0,30.06,South,180,0.0,3.0,87,0.00,,,0.00,,2013-08-09 05:22:00,
2013-08-09 01:43:00,73.0,69.0,30.06,SE,135,0.0,0.0,88,0.00,,,0.00,,2013-08-09 05:43:00,
2013-08-09 01:52:00,72.0,68.0,30.06,ESE,112,0.0,0.0,88,0.00,,,0.00,,2013-08-09 05:52:00,
2013-08-09 02:01:00,72.0,68.0,30.06,North,0,0.0,0.0,88,0.00,,,5.19,,2013-08-09 06:01:00,
2013-08-09 02:22:00,72.0,68.0,30.06,North,0,0.0,0.0,88,0.00,,,5.19,,2013-08-09 06:22:00,
2013-08-09 02:32:00,72.0,68.0,30.06,North,0,0.0,0.0,88,0.00,,,0.00,,2013-08-09 06:32:00,
2013-08-09 02:43:00,72.0,68.0,30.06,SSE,158,0.0,0.0,88,0.00,,,5.19,,2013-08-09 06:43:00,
2013-08-09 02:52:00,72.0,68.0,30.06,SSE,158,0.0,0.0,88,0.00,,,5.19,,2013-08-09 06:52:00,
2013-08-09 03:01:00,72.0,68.0,30.06,SW,225,0.0,0.0,88,0.00,,,0.00,,2013-08-09 07:01:00,
2013-08-09 03:43:00,72.0,69.0,30.03,SSE,158,0.0,0.0,89,0.00,,,0.00,,2013-08-09 07:43:00,
2013-08-09 03:53:00,72.0,69.0,30.03,South,180,0.0,0.0,89,0.00,,,0.00,,2013-08-09 07:53:00,
2013-08-09 04:02:00,72.0,69.0,30.03,South,180,0.0,0.0,89,0.00,,,0.00,,2013-08-09 08:02:00,
2013-08-09 04:12:00,72.0,69.0,30.03,South,180,0.0,0.0,89,0.00,,,0.00,,2013-08-09 08:12:00,
2013-08-09 04:22:00,72.0,69.0,30.03,SSE,158,0.0,0.0,89,0.00,,,0.00,,2013-08-09 08:22:00,
2013-08-09 04:32:00,72.0,69.0,30.03,SSW,202,0.0,0.0,89,0.00,,,0.00,,2013-08-09 08:32:00,
2013-08-09 04:43:00,73.0,70.0,30.03,South,180,0.0,0.0,90,0.00,,,0.00,,2013-08-09 08:43:00,
2013-08-09 04:53:00,73.0,70.0,30.03,SE,135,0.0,0.0,90,0.00,,,0.00,,2013-08-09 08:53:00,
2013-08-09 05:02:00,73.0,70.0,30.03,SW,225,0.0,0.0,89,0.00,,,0.00,,2013-08-09 09:02:00,
2013-08-09 05:22:00,73.0,70.0,30.03,North,0,0.0,0.0,89,0.00,,,0.00,,2013-08-09 09:22:00,
2013-08-09 05:32:00,73.0,70.0,30.03,SSW,202,0.0,7.0,90,0.00,,,0.00,,2013-08-09 09:32:00,
2013-08-09 05:43:00,73.0,70.0,30.03,SSE,158,0.0,2.0,90,0.00,,,0.00,,2013-08-09 09:43:00,
2013-08-09 05:52:00,73.0,70.0,30.03,SW,225,0.0,0.0,90,0.00,,,0.00,,2013-08-09 09:52:00,
2013-08-09 06:12:00,73.0,70.0,30.03,South,180,0.0,2.0,90,0.00,,,0.00,,2013-08-09 10:12:00,
2013-08-09 06:22:00,73.0,70.0,30.03,South,180,0.0,2.0,90,0.00,,,5.19,,2013-08-09 10:22:00,
2013-08-09 06:43:00,73.0,70.0,30.03,South,180,0.0,0.0,90,0.00,,,0.00,,2013-08-09 10:43:00,
2013-08-09 06:53:00,73.0,70.0,30.03,South,180,0.0,0.0,90,0.00,,,0.00,,2013-08-09 10:53:00,
2013-08-09 07:02:00,73.0,70.0,30.03,South,180,0.0,0.0,90,0.00,,,0.00,,2013-08-09 11:02:00,
2013-08-09 07:53:00,74.0,71.0,30.03,North,0,0.0,0.0,89,0.00,,,5.19,,2013-08-09 11:53:00,
2013-08-09 08:02:00,74.0,71.0,30.03,North,0,0.0,0.0,89,0.00,,,5.19,,2013-08-09 12:02:00,
2013-08-09 08:12:00,74.0,71.0,30.03,SSE,158,0.0,0.0,89,0.00,,,0.00,,2013-08-09 12:12:00,
2013-08-09 08:22:00,74.0,71.0,30.03,SSE,158,0.0,0.0,89,0.00,,,0.00,,2013-08-09 12:22:00,
2013-08-09 08:32:00,74.0,71.0,30.03,North,0,0.0,3.0,89,0.00,,,0.00,,2013-08-09 12:32:00,
2013-08-09 08:43:00,75.0,72.0,30.03,SW,225,0.0,4.0,89,0.00,,,0.00,,2013-08-09 12:43:00,
2013-08-09 08:52:00,75.0,72.0,30.03,SSE,158,0.0,0.0,89,0.00,,,0.00,,2013-08-09 12:52:00,
2013-08-09 09:01:00,75.0,72.0,30.00,North,0,0.0,0.0,89,0.00,,,5.19,,2013-08-09 13:01:00,
2013-08-09 09:12:00,75.0,71.0,30.00,North,0,0.0,4.0,88,0.00,,,5.19,,2013-08-09 13:12:00,
2013-08-09 09:43:00,75.0,71.0,30.00,North,0,0.0,11.0,88,0.00,,,0.00,,2013-08-09 13:43:00,
2013-08-09 09:52:00,75.0,71.0,30.00,North,0,0.0,11.0,88,0.00,,,0.00,,2013-08-09 13:52:00,
2013-08-09 10:02:00,76.0,72.0,30.00,SE,135,0.0,9.0,88,0.00,,,0.00,,2013-08-09 14:02:00,
2013-08-09 10:43:00,75.0,71.0,29.97,SSE,158,0.0,5.0,88,0.00,,,0.00,,2013-08-09 14:43:00,
2013-08-09 10:53:00,75.0,71.0,29.97,North,0,0.0,7.0,88,0.00,,,0.00,,2013-08-09 14:53:00,
2013-08-09 11:12:00,75.0,71.0,29.97,South,180,0.0,0.0,88,0.00,,,0.00,,2013-08-09 15:12:00,
2013-08-09 11:44:00,74.0,71.0,29.97,ESE,112,0.0,5.0,90,0.00,,,0.00,,2013-08-09 15:44:00,
2013-08-09 11:53:00,74.0,71.0,29.97,ESE,112,0.0,8.0,90,0.00,,,5.19,,2013-08-09 15:53:00,
2013-08-09 12:02:00,74.0,71.0,29.94,SSW,202,0.0,6.0,90,0.00,,,0.00,,2013-08-09 16:02:00,
2013-08-09 12:22:00,74.0,71.0,29.94,SSE,158,0.0,9.0,90,0.00,,,0.00,,2013-08-09 16:22:00,
2013-08-09 12:32:00,74.0,71.0,29.94,SSE,158,5.0,5.0,91,0.00,,,0.00,,2013-08-09 16:32:00,
2013-08-09 12:43:00,74.0,71.0,29.94,South,180,0.0,4.0,91,0.00,,,5.19,,2013-08-09 16:43:00,
2013-08-09 12:53:00,74.0,71.0,29.94,South,180,0.0,4.0,91,0.00,,,5.19,,2013-08-09 16:53:00,
2013-08-09 13:02:00,74.0,71.0,29.94,South,180,0.0,4.0,91,0.00,,,5.19,,2013-08-09 17:02:00,
2013-08-09 13:22:00,74.0,71.0,29.94,SE,135,0.0,0.0,90,0.00,,,0.00,,2013-08-09 17:22:00,
2013-08-09 13:33:00,74.0,71.0,29.94,SE,135,2.0,8.0,90,0.00,,,0.00,,2013-08-09 17:33:00,
2013-08-09 13:43:00,74.0,71.0,29.94,SE,135,2.0,8.0,90,0.00,,,0.00,,2013-08-09 17:43:00,
2013-08-09 14:22:00,73.0,70.0,29.91,South,180,12.0,12.0,91,0.00,,,0.00,,2013-08-09 18:22:00,
2013-08-09 14:32:00,72.0,69.0,29.91,SE,135,8.0,10.0,91,0.00,,,0.00,,2013-08-09 18:32:00,
2013-08-09 14:43:00,72.0,69.0,29.88,SSE,158,0.0,4.0,91,0.00,,,0.00,,2013-08-09 18:43:00,
2013-08-09 14:53:00,72.0,69.0,29.88,SSE,158,0.0,4.0,91,0.00,,,0.00,,2013-08-09 18:53:00,
2013-08-09 15:02:00,72.0,70.0,29.88,SSW,202,0.0,7.0,92,0.00,,,0.00,,2013-08-09 19:02:00,
2013-08-09 15:22:00,72.0,70.0,29.88,SSE,158,0.0,0.0,92,0.00,,,0.00,,2013-08-09 19:22:00,
2013-08-09 15:52:00,72.0,70.0,29.85,South,180,0.0,6.0,93,0.00,,,0.00,,2013-08-09 19:52:00,
2013-08-09 16:02:00,72.0,70.0,29.83,North,0,0.0,6.0,93,0.00,,,5.19,,2013-08-09 20:02:00,
2013-08-09 16:22:00,73.0,71.0,29.83,North,0,0.0,4.0,93,0.00,,,0.00,,2013-08-09 20:22:00,
2013-08-09 16:43:00,73.0,71.0,29.83,North,0,0.0,4.0,93,0.00,,,5.19,,2013-08-09 20:43:00,
2013-08-09 16:52:00,73.0,71.0,29.83,North,0,0.0,4.0,93,0.00,,,5.19,,2013-08-09 20:52:00,
2013-08-09 17:33:00,73.0,71.0,29.83,North,0,0.0,0.0,94,0.00,,,0.00,,2013-08-09 21:33:00,
2013-08-09 17:52:00,74.0,72.0,29.83,North,0,0.0,0.0,94,0.00,,,5.19,,2013-08-09 21:52:00,
2013-08-09 18:02:00,74.0,72.0,29.80,North,0,0.0,0.0,94,0.00,,,0.00,,2013-08-09 22:02:00,
2013-08-09 18:22:00,74.0,72.0,29.80,North,0,0.0,0.0,94,0.00,,,0.00,,2013-08-09 22:22:00,
2013-08-09 18:32:00,74.0,72.0,29.80,North,0,0.0,0.0,94,0.00,,,0.00,,2013-08-09 22:32:00,
2013-08-09 18:52:00,74.0,72.0,29.80,North,0,0.0,0.0,94,0.00,,,5.19,,2013-08-09 22:52:00,
2013-08-09 19:02:00,74.0,72.0,29.83,North,0,0.0,0.0,94,0.00,,,0.00,,2013-08-09 23:02:00,
2013-08-09 19:22:00,74.0,72.0,29.83,North,0,0.0,0.0,94,0.00,,,0.00,,2013-08-09 23:22:00,
2013-08-09 19:43:00,74.0,72.0,29.80,North,0,0.0,0.0,94,0.00,,,5.19,,2013-08-09 23:43:00,
2013-08-09 19:52:00,74.0,72.0,29.83,North,0,0.0,0.0,94,0.00,,,0.00,,2013-08-09 23:52:00,
2013-08-09 20:01:00,74.0,72.0,29.83,North,0,0.0,0.0,94,0.00,,,0.00,,2013-08-10 00:01:00,
2013-08-09 20:22:00,73.0,71.0,29.83,North,0,0.0,0.0,94,0.00,,,0.00,,2013-08-10 00:22:00,
2013-08-09 20:33:00,73.0,71.0,29.83,North,0,0.0,0.0,94,0.00,,,5.19,,2013-08-10 00:33:00,
2013-08-09 20:43:00,73.0,71.0,29.83,North,0,0.0,0.0,94,0.00,,,5.19,,2013-08-10 00:43:00,
2013-08-09 20:52:00,73.0,71.0,29.83,North,0,0.0,0.0,94,0.00,,,5.19,,2013-08-10 00:52:00,
2013-08-09 21:02:00,73.0,71.0,29.83,North,0,0.0,0.0,94,0.00,,,0.00,,2013-08-10 01:02:00,
2013-08-09 21:11:00,73.0,71.0,29.83,North,0,0.0,0.0,94,0.00,,,0.00,,2013-08-10 01:11:00,
2013-08-09 21:22:00,73.0,71.0,29.83,North,0,0.0,0.0,94,0.00,,,5.19,,2013-08-10 01:22:00,
2013-08-09 21:32:00,73.0,71.0,29.83,North,0,0.0,0.0,94,0.00,,,5.19,,2013-08-10 01:32:00,
2013-08-09 21:42:00,73.0,71.0,29.83,North,0,0.0,0.0,94,0.00,,,0.00,,2013-08-10 01:42:00,
2013-08-09 21:52:00,73.0,71.0,29.83,North,0,0.0,0.0,94,0.00,,,5.19,,2013-08-10 01:52:00,
2013-08-09 22:03:00,73.0,71.0,29.83,North,0,0.0,0.0,94,0.00,,,5.19,,2013-08-10 02:03:00,
2013-08-09 22:10:00,73.0,71.0,29.83,North,0,0.0,0.0,94,0.00,,,0.00,,2013-08-10 02:10:00,
2013-08-09 22:11:00,73.0,71.0,29.83,North,0,0.0,0.0,94,0.00,,,5.19,,2013-08-10 02:11:00,
2013-08-09 22:21:00,73.0,71.0,29.83,North,0,0.0,0.0,94,0.00,,,5.19,,2013-08-10 02:21:00,
2013-08-09 22:32:00,73.0,71.0,29.83,North,0,0.0,0.0,94,0.00,,,0.00,,2013-08-10 02:32:00,
2013-08-09 22:42:00,73.0,71.0,29.83,North,0,0.0,0.0,94,0.00,,,0.00,,2013-08-10 02:42:00,
2013-08-09 22:52:00,73.0,71.0,29.83,North,0,0.0,0.0,94,0.00,,,0.00,,2013-08-10 02:52:00,
2013-08-09 23:01:00,73.0,71.0,29.83,North,0,0.0,0.0,94,0.00,,,0.00,,2013-08-10 03:01:00,
2013-08-09 23:22:00,72.0,70.0,29.83,North,0,0.0,0.0,94,0.00,,,0.00,,2013-08-10 03:22:00,
2013-08-09 23:32:00,72.0,70.0,29.83,North,0,0.0,0.0,94,0.00,,,0.00,,2013-08-10 03:32:00,
2013-08-09 23:42:00,72.0,70.0,29.83,North,0,0.0,0.0,94,0.00,,,0.00,,2013-08-10 03:42:00,
2013-08-09 23:52:00,72.0,70.0,29.83,North,0,0.0,0.0,94,0.00,,,5.19,,2013-08-10 03:52:00,